TimeEDT,TemperatureF,Dew PointF,Humidity,Sea Level PressureIn,VisibilityMPH,Wind Direction,Wind SpeedMPH,Gust SpeedMPH,PrecipitationIn,Events,Conditions,WindDirDegrees,DateUTC
12:15 AM,70.7,70.7,100,30.12,10.0,Calm,Calm,-,N/A,,Overcast,0,2013-08-20 04:15:00
12:35 AM,70.3,70.3,100,30.12,10.0,Calm,Calm,-,N/A,,Overcast,0,2013-08-20 04:35:00
12:55 AM,69.4,69.4,100,30.12,10.0,Calm,Calm,-,N/A,,Mostly Cloudy,0,2013-08-20 04:55:00
1:15 AM,68.2,68.2,100,30.12,3.0,Calm,Calm,-,N/A,,Scattered Clouds,0,2013-08-20 05:15:00
1:35 AM,66.9,66.9,100,30.12,0.2,Calm,Calm,-,N/A,Fog,Fog,0,2013-08-20 05:35:00
1:55 AM,65.8,65.8,100,30.11,0.2,Calm,Calm,-,N/A,Fog,Fog,0,2013-08-20 05:55:00
2:15 AM,66.2,66.2,100,30.11,0.2,Calm,Calm,-,N/A,Fog,Fog,0,2013-08-20 06:15:00
2:35 AM,66.0,66.0,100,30.11,0.2,Calm,Calm,-,N/A,Fog,Fog,0,2013-08-20 06:35:00
2:55 AM,65.7,65.7,100,30.10,1.0,Calm,Calm,-,N/A,,Overcast,0,2013-08-20 06:55:00
3:15 AM,66.9,66.9,100,30.10,7.0,Calm,Calm,-,N/A,,Overcast,0,2013-08-20 07:15:00
3:35 AM,67.1,67.1,100,30.10,3.0,Calm,Calm,-,N/A,,Overcast,0,2013-08-20 07:35:00
3:55 AM,66.9,66.9,100,30.10,0.2,Calm,Calm,-,N/A,Fog,Fog,0,2013-08-20 07:55:00
4:15 AM,67.1,67.1,100,30.10,0.8,Calm,Calm,-,N/A,,Overcast,0,2013-08-20 08:15:00
4:35 AM,67.1,67.1,100,30.10,0.2,Calm,Calm,-,N/A,Fog,Fog,0,2013-08-20 08:35:00
4:55 AM,67.1,67.1,100,30.10,0.2,Calm,Calm,-,N/A,Fog,Fog,0,2013-08-20 08:55:00
5:15 AM,66.7,66.7,100,30.11,0.2,Calm,Calm,-,N/A,Fog,Fog,0,2013-08-20 09:15:00
5:35 AM,66.4,66.4,100,30.11,0.5,Calm,Calm,-,N/A,Fog,Fog,0,2013-08-20 09:35:00
5:55 AM,66.6,66.6,100,30.11,0.2,Calm,Calm,-,N/A,Fog,Fog,0,2013-08-20 09:55:00
6:15 AM,66.7,66.7,100,30.12,0.2,Calm,Calm,-,N/A,Fog,Fog,0,2013-08-20 10:15:00
6:35 AM,66.7,66.7,100,30.13,0.2,Calm,Calm,-,N/A,Fog,Fog,0,2013-08-20 10:35:00
6:55 AM,67.3,67.3,100,30.14,0.2,Calm,Calm,-,N/A,Fog,Fog,0,2013-08-20 10:55:00
7:15 AM,67.5,67.5,100,30.14,0.2,Calm,Calm,-,N/A,Fog,Fog,0,2013-08-20 11:15:00
7:35 AM,67.8,67.8,100,30.15,0.2,Calm,Calm,-,N/A,Fog,Fog,0,2013-08-20 11:35:00
7:55 AM,67.6,67.6,100,30.15,0.2,Calm,Calm,-,N/A,Fog,Fog,0,2013-08-20 11:55:00
8:15 AM,68.0,68.0,100,30.16,0.2,Calm,Calm,-,N/A,Fog,Fog,0,2013-08-20 12:15:00
8:35 AM,68.9,68.9,100,30.17,0.2,Calm,Calm,-,N/A,Fog,Fog,0,2013-08-20 12:35:00
8:55 AM,69.6,69.6,100,30.18,0.5,Calm,Calm,-,N/A,Fog,Fog,0,2013-08-20 12:55:00
9:15 AM,70.0,70.0,100,30.18,3.0,Calm,Calm,-,N/A,,Overcast,0,2013-08-20 13:15:00
9:35 AM,71.4,71.4,100,30.18,10.0,Calm,Calm,-,N/A,,Overcast,0,2013-08-20 13:35:00
9:55 AM,72.7,72.7,100,30.18,10.0,Calm,Calm,-,N/A,,Mostly Cloudy,0,2013-08-20 13:55:00
10:15 AM,73.6,73.6,100,30.18,10.0,Calm,Calm,-,N/A,,Scattered Clouds,0,2013-08-20 14:15:00
10:35 AM,74.3,74.3,100,30.18,10.0,Calm,Calm,-,N/A,,Scattered Clouds,0,2013-08-20 14:35:00
10:55 AM,77.2,77.2,100,30.19,10.0,NNE,5.8,-,N/A,,Scattered Clouds,30,2013-08-20 14:55:00
11:15 AM,81.0,76.1,85,30.18,10.0,ENE,4.6,-,N/A,,Clear,60,2013-08-20 15:15:00
11:35 AM,81.9,74.3,78,30.18,10.0,ENE,5.8,-,N/A,,Clear,60,2013-08-20 15:35:00
11:55 AM,83.1,74.7,76,30.18,10.0,NNE,5.8,-,N/A,,Clear,30,2013-08-20 15:55:00
12:15 PM,84.0,73.9,72,30.18,10.0,NNE,3.5,-,N/A,,Scattered Clouds,30,2013-08-20 16:15:00
12:35 PM,83.7,74.1,73,30.18,10.0,Calm,Calm,-,N/A,,Scattered Clouds,0,2013-08-20 16:35:00
12:55 PM,84.6,73.2,69,30.18,10.0,Calm,Calm,-,N/A,,Mostly Cloudy,0,2013-08-20 16:55:00
1:15 PM,84.0,72.5,68,30.18,10.0,Calm,Calm,-,N/A,,Overcast,0,2013-08-20 17:15:00
1:35 PM,84.6,73.4,69,30.17,10.0,ENE,4.6,-,N/A,,Mostly Cloudy,60,2013-08-20 17:35:00
1:55 PM,85.3,72.3,65,30.17,10.0,Calm,Calm,-,N/A,,Mostly Cloudy,0,2013-08-20 17:55:00
2:15 PM,85.3,72.7,66,30.17,10.0,Calm,Calm,-,N/A,,Scattered Clouds,0,2013-08-20 18:15:00
2:35 PM,87.6,73.0,62,30.16,10.0,Calm,Calm,-,N/A,,Scattered Clouds,0,2013-08-20 18:35:00
2:55 PM,87.1,74.1,65,30.15,10.0,SSW,6.9,-,N/A,,Scattered Clouds,200,2013-08-20 18:55:00
3:15 PM,87.8,75.0,66,30.15,10.0,SSW,4.6,-,N/A,,Scattered Clouds,200,2013-08-20 19:15:00
3:35 PM,86.4,74.1,67,30.15,10.0,South,3.5,-,N/A,,Scattered Clouds,190,2013-08-20 19:35:00
3:55 PM,87.1,76.3,70,30.14,10.0,South,5.8,-,N/A,,Scattered Clouds,190,2013-08-20 19:55:00
4:15 PM,86.0,75.4,70,30.13,10.0,South,4.6,-,N/A,,Clear,180,2013-08-20 20:15:00
4:35 PM,86.0,76.8,74,30.13,10.0,South,4.6,-,N/A,,Clear,170,2013-08-20 20:35:00
4:55 PM,85.6,76.5,74,30.12,10.0,Calm,Calm,-,N/A,,Scattered Clouds,0,2013-08-20 20:55:00
5:15 PM,86.5,76.3,71,30.12,10.0,SSE,3.5,-,N/A,,Scattered Clouds,150,2013-08-20 21:15:00
5:35 PM,85.3,75.7,73,30.12,10.0,SSW,3.5,-,N/A,,Scattered Clouds,200,2013-08-20 21:35:00
5:55 PM,85.3,76.1,74,30.12,10.0,SE,3.5,-,N/A,,Clear,140,2013-08-20 21:55:00
6:15 PM,84.4,76.1,76,30.12,10.0,Calm,Calm,-,N/A,,Scattered Clouds,0,2013-08-20 22:15:00
6:35 PM,84.6,76.1,76,30.12,10.0,SSE,3.5,-,N/A,,Scattered Clouds,150,2013-08-20 22:35:00
6:55 PM,83.7,76.3,78,30.12,10.0,SSE,3.5,-,N/A,,Scattered Clouds,150,2013-08-20 22:55:00
7:15 PM,82.4,75.9,81,30.12,10.0,SSE,3.5,-,N/A,,Scattered Clouds,150,2013-08-20 23:15:00
7:35 PM,80.8,75.7,85,30.13,10.0,Calm,Calm,-,N/A,,Clear,0,2013-08-20 23:35:00
7:55 PM,79.7,76.1,89,30.13,10.0,Calm,Calm,-,N/A,,Scattered Clouds,0,2013-08-20 23:55:00
8:15 PM,77.7,76.1,95,30.14,10.0,Calm,Calm,-,N/A,,Scattered Clouds,0,2013-08-21 00:15:00
8:35 PM,76.1,76.1,100,30.14,10.0,Calm,Calm,-,N/A,,Mostly Cloudy,0,2013-08-21 00:35:00
8:55 PM,75.4,75.4,100,30.15,10.0,Calm,Calm,-,N/A,,Mostly Cloudy,0,2013-08-21 00:55:00
9:15 PM,75.7,75.6,99,30.15,10.0,Calm,Calm,-,N/A,,Scattered Clouds,0,2013-08-21 01:15:00
9:35 PM,75.2,75.2,100,30.16,10.0,Calm,Calm,-,N/A,,Mostly Cloudy,0,2013-08-21 01:35:00
9:55 PM,73.0,73.0,100,30.16,7.0,Calm,Calm,-,N/A,,Scattered Clouds,0,2013-08-21 01:55:00
10:15 PM,71.8,71.8,100,30.16,4.0,Calm,Calm,-,N/A,,Clear,0,2013-08-21 02:15:00
10:35 PM,71.8,71.8,100,30.17,5.0,Calm,Calm,-,N/A,,Clear,0,2013-08-21 02:35:00
10:55 PM,71.8,71.8,100,30.17,5.0,South,3.5,-,N/A,,Clear,190,2013-08-21 02:55:00
11:15 PM,70.7,70.7,100,30.17,5.0,Calm,Calm,-,N/A,,Clear,0,2013-08-21 03:15:00
11:35 PM,70.2,70.2,100,30.17,3.0,Calm,Calm,-,N/A,,Clear,0,2013-08-21 03:35:00
11:55 PM,69.1,69.1,100,30.17,0.2,Calm,Calm,-,N/A,Fog,Fog,0,2013-08-21 03:55:00